Regional Weather Roundup
Issued by NWS Jackson, KY

Home | Current Version | Previous Version | Text Only | Print | Product List | Glossary Off
Versions: 1 2 3 4 5 6 7 8 9 10 11 12 13 14 15 16 17 18 19 20 21 22 23 24 25 26 27 28 29 30 31 32 33 34 35 36 37 38 39 40 41 42 43 44 45 46 47 48 49 50

000
ASUS43 KJKL 182210
RWRJKL

EAST KENTUCKY HOURLY WEATHER ROUNDUP
NATIONAL WEATHER SERVICE JACKSON KY
600 PM EDT THU SEP 18 2014

NOTE: "FAIR" INDICATES FEW OR NO CLOUDS BELOW 12,000 FEET WITH
NO SIGNIFICANT WEATHER AND/OR OBSTRUCTIONS TO VISIBILITY.

* THESE REPORTS ARE NOT UNDER NWS QUALITY CONTROL AND MAY NOT
  REPORT WEATHER SUCH AS PRECIPITATION AND FOG.

KYZ079-080-083-085-087-088-110-112-115-119-120-182300
...EASTERN KENTUCKY...

CITY           SKY/WX    TMP DP  RH WIND       PRES   REMARKS
JACKSON        SUNNY     70  53  54 CALM      30.05S
LONDON         MOSUNNY   74  53  48 N7        30.03S
MONTICELLO*    PTSUNNY   76  55  47 NE6       30.03S
MIDDLESBORO*   PTSUNNY   73  57  56 N5        30.01S
HARLAN APT*    PTCLDY    72  50  46 MISG      30.02S
HAZARD APT*    CLEAR     70  54  56 CALM      30.04
BLACK MTN*       N/A     57  54  88 N5          N/A
PIKEVILLE APT* MOSUNNY   68  55  64 N5        30.06R
BIG SANDY*     MOCLDY    70  56  59 NE7       30.05S
MOREHEAD APT*  PTCLDY    68  52  56 CALM      30.07S
$$

KYZ035-036-041-042-044-050-067-078-099-182300
...CENTRAL KENTUCKY...

CITY           SKY/WX    TMP DP  RH WIND       PRES   REMARKS
MT STERLING*   MOSUNNY   70  52  52 E3        30.06S
FLEMING/MASON* SUNNY     70  48  46 NE6       30.06S
DANVILLE*      SUNNY     72  50  46 E5        30.05R
RICHMOND*      MOSUNNY   70  52  52 NE3       30.04R
LEXINGTON      SUNNY     73  52  47 NE10      30.04S
FRANKFORT      SUNNY     73  49  42 NE6       30.03S
$$

KYZ091>093-OHZ055-061-077-WVZ005-015-034-035-042-182300
...SOUTHERN OHIO/WEST VIRGINIA...

CITY           SKY/WX    TMP DP  RH WIND       PRES   REMARKS
COVINGTON      MOSUNNY   71  46  40 E10       30.05F
COLUMBUS       MOSUNNY   72  46  39 E7        30.08S
DAYTON         MOSUNNY   72  47  40 E10       30.08F
WILMINGTON     SUNNY     69  45  41 NE8       30.07F
HUNTINGTON     SUNNY     71  51  49 NE3       30.04S
CHARLESTON     PTSUNNY   71  52  50 CALM      30.04S
PINEVILLE*     SUNNY     65  63  91 MISG      30.10R
BECKLEY        PTSUNNY   67  49  52 N6        30.07S
BLUEFIELD      CLOUDY    70  49  47 N3        30.08R
$$

VAZ002-007-008-TNZ017-027-036-066-071-182300
...SOUTHWEST VIRGINIA/EAST TENNESSEE...

CITY           SKY/WX    TMP DP  RH WIND       PRES   REMARKS
WISE*          MOSUNNY   68  48  49 N5        30.09S
JONESVILLE*    MOCLDY    73  52  46 CALM      30.03S
ABINGDON*      CLOUDY    70  55  58 CALM      30.05S
BRISTOL        CLOUDY    72  54  53 N6        30.01S
KNOXVILLE      CLOUDY    77  55  46 NE10      29.97S
OAK RIDGE      PTSUNNY   76  57  51 CALM      30.00S
CROSSVILLE     PTSUNNY   73  56  54 NE5       30.02S
NASHVILLE      CLOUDY    75  54  47 E6        29.98F
$$

...KEY TO REMARKS...
VSB - VISIBILITY IN MILES
WCI - WIND CHILL INDEX
HX  - HEAT INDEX

$$



USA.gov is the U.S. government's official web portal to all federal, state and local government web resources and services.